Weather past 2 weeks in Mamoutzou, Mayotte

Now
81 °F

Passing clouds.


Feels Like: 86 °F
Forecast: 82 / 85 °F
Wind: 2 mph from South

Location: Dzaoudzi / Pamanzi Mayotte

Current Time: Apr 1, 2015 at 6:26:12 PM

Latest Report: Apr 1, 2015 at 6:06 PM


Visibility: N/A

Pressure: 29.83 "Hg

Humidity: 84%

Dew point: 75 °F

Location of MamoutzouLocation

Historic Weather in Mamoutzou — Graph

°F

Mamoutzou temperature yesterday

Maximum temperature yesterday: 88 °F (at 9:30 AM)
Minimum temperature yesterday: 82 °F (at 12:00 AM)
Average temperature yesterday: 85 °F

Past Weeks' High & Low Weather Summary

 TemperatureHumidityPressure
High90 °F (Mar 20, 1:30 PM)94% (Mar 21, 1:30 AM)30.01 "Hg (Mar 21, 1:30 AM)
Low75 °F (Mar 21, 8:04 AM)55% (Mar 28, 2:00 PM)29.80 "Hg (Apr 1, 2:30 AM)
Average84 °F78%29.90 "Hg
* Reported Mar 17 5:00 PM — Apr 1 5:00 PM, Mamoutzou, Weather by CustomWeather, © 2015

Note: Actual official high and low records may vary slightly from our data, if they occured in-between our weather recording intervals... More about our weather records

Advertising

Mamoutzou weather history for previous 24 hours

 ConditionsComfort  
Time TempWeatherWind HumidityBarometerVisibility
5:00 PM
Wed, Apr 1
81 °FScattered clouds.5 mph84%29.83 "HgN/A
4:30 PM79 °FScattered clouds.7 mph89%29.83 "HgN/A
4:00 PM79 °FPartly sunny.5 mph94%29.83 "HgN/A
3:30 PM79 °FSprinkles. Partly sunny.8 mph89%29.83 "Hg2 mi
3:05 PM79 °FThunderstorms. Partly sunny.12 mph94%29.83 "Hg1 mi
3:04 PM79 °FThunderstorms. Partly sunny.12 mph89%29.83 "Hg1 mi
2:30 PM84 °FRain showers. Partly sunny.12 mph74%29.83 "HgN/A
2:00 PM84 °FThunderstorms. Scattered clouds.6 mph79%29.83 "HgN/A
1:30 PM86 °FScattered showers. Scattered clouds.6 mph70%29.83 "HgN/A
1:04 PM84 °FBroken clouds.8 mph79%29.86 "HgN/A
12:30 PM82 °FScattered showers. Broken clouds.14 mph79%29.86 "Hg6 mi
12:00 PM84 °FThundershowers. Broken clouds.14 mph74%29.86 "Hg5 mi
11:30 AM88 °FScattered showers. Broken clouds.7 mph75%29.86 "HgN/A
11:00 AM88 °FBroken clouds.7 mph75%29.89 "HgN/A
10:34 AM88 °FPartly sunny.6 mph66%29.89 "HgN/A
10:00 AM86 °FPartly sunny.8 mph70%29.89 "HgN/A
9:30 AM86 °FPartly sunny.7 mph70%29.92 "HgN/A
9:00 AM84 °FScattered clouds.6 mph79%29.92 "HgN/A
8:30 AM84 °FScattered clouds.6 mph79%29.89 "HgN/A
8:00 AM82 °FScattered clouds.5 mph84%29.89 "HgN/A
7:30 AM82 °FPassing clouds.5 mph84%29.86 "HgN/A
7:00 AM82 °FPassing clouds.3 mph84%29.86 "HgN/A
6:30 AM82 °FPassing clouds.3 mph84%29.83 "HgN/A
6:00 AM82 °FPassing clouds.3 mph84%29.83 "HgN/A
5:30 AM82 °FPassing clouds.3 mph84%29.83 "HgN/A
5:00 AM82 °FPassing clouds.6 mph84%29.83 "HgN/A
4:30 AM82 °FWarm.6 mph79%29.83 "HgN/A
4:00 AM82 °FWarm.5 mph79%29.80 "HgN/A
3:30 AM82 °FPassing clouds.5 mph84%29.80 "HgN/A
3:00 AM82 °FPassing clouds.5 mph84%29.80 "HgN/A
2:30 AM82 °FWarm.7 mph84%29.80 "HgN/A
2:00 AM82 °FWarm.6 mph84%29.83 "HgN/A
1:30 AM82 °FPassing clouds.6 mph84%29.83 "HgN/A
1:00 AM82 °FPassing clouds.6 mph84%29.83 "HgN/A
12:30 AM82 °FWarm.6 mph84%29.83 "HgN/A
12:00 AM82 °FPassing clouds.7 mph84%29.86 "HgN/A
11:30 PM
Tue, Mar 31
82 °FPassing clouds.7 mph89%29.86 "HgN/A
11:00 PM82 °FPassing clouds.7 mph84%29.86 "HgN/A
10:30 PM82 °FPassing clouds.6 mph89%29.89 "HgN/A
10:00 PM82 °FLight rain. Partly cloudy.5 mph89%29.89 "HgN/A
9:30 PM84 °FPassing clouds.6 mph84%29.89 "HgN/A
9:00 PM84 °FPartly cloudy.6 mph79%29.89 "HgN/A
8:30 PM84 °FPassing clouds.6 mph79%29.89 "HgN/A
8:00 PM84 °FPassing clouds.6 mph79%29.86 "HgN/A
7:30 PM84 °FPassing clouds.7 mph79%29.86 "HgN/A
7:00 PM84 °FPassing clouds.8 mph79%29.86 "HgN/A
6:30 PM84 °FWarm.9 mph79%29.86 "HgN/A
6:00 PM84 °FPassing clouds.8 mph79%29.86 "HgN/A
Weather by CustomWeather, © 2015

See weather overviewHow to use our weather pages